Other Public Products
Issued by NWS Charleston, SC

Current Version | Previous Version | Text Only | Print | Product List | Glossary Off
Versions: 1 2 3 4 5 6 7 8 9 10 11 12 13 14 15 16 17 18 19 20 21 22 23 24 25 26 27 28 29 30 31 32 33 34 35 36 37 38 39 40 41 42 43 44 45 46 47 48 49 50
000 FPUS82 KCHS 271727 OPUCHS TEST...KCHS/KSAV Gateway Observations...TEST National Weather Service Charleston SC 100 PM EDT THU JUL 27 2017 NOTE: "fair" indicates few or no clouds below 12,000 feet with no significant weather and/or obstructions to visibility. SCZ050-WAZ558-NCZ071-TXZ119-213-PAZ071-DCZ001-FLZ074-172-MI076- NYZ176-178-MAZ016-IL014-TNZ027-NJZ106-GAZ044-MD014-271800- ...Gateway Observations for Charleston International... CITY SKY/WX TMP DP RH WIND PRES REMARKS Chas Airport MOSUNNY 86 69 56 CALM 30.02F HX 90 Seattle CLOUDY 60 53 77 SW7 30.17S Charlotte PTSUNNY 87 72 60 SW9 30.05F HX 93 Dallas DFW PTSUNNY 93 68 43 SW8 30.01F HX 97 Dallas Love PTSUNNY 94 67 41 W7 30.02F HX 97 Philladelphia CLOUDY 78 68 71 SW8 29.97F Wash National CLOUDY 83 73 72 S8 29.95F Baltimore CLOUDY 82 71 69 S5 29.94F Miami PTSUNNY 92 76 59 SE10 30.03S HX 104 Detroit PTSUNNY 84 64 50 N7 29.92F Newark CLOUDY 79 67 66 W8 29.96F Laguardia CLOUDY 77 67 71 SW9 29.96F J F K PTSUNNY 77 68 73 S8 29.99F Boston Logan LGT RAIN 72 60 66 SW16G25 29.94F Ft. Lauderdale MOSUNNY 90 75 61 E13 30.02F HX 100 Chicago O`Hare PTSUNNY 80 68 66 NE15 29.95S Chicago Midway PTSUNNY 80 70 71 NE14 29.94S Houston Bush MOSUNNY 91 73 55 SW6 30.08S HX 99 Houston Hobby MOSUNNY 93 72 50 SW9 30.07F HX 101 Nashville PTSUNNY 92 72 51 W8 30.01F HX 99 Atlanta MOSUNNY 88 70 55 VRB6 30.08S HX 93 $$ GAZ044-118-TXZ119-213-NCZ071-DCZ001-MDZ014-506-PAZ021-071-NJZ106- NYZ176-178-MAZ106-OHZ011-021-055-MIZ076-KYZ091-ILZ014-INZ047- MNZ060-ONZ431-271800- ...Gateway Observations for Savannah International... CITY SKY/WX TMP DP RH WIND PRES REMARKS Savannah Arpt CLOUDY 80 76 87 VRB3 30.02F Atlanta MOSUNNY 88 70 55 VRB6 30.08S HX 93 Charlotte PTSUNNY 87 72 60 SW9 30.05F HX 93 Dallas DFW PTSUNNY 93 68 43 SW8 30.01F HX 97 Houston Bush MOSUNNY 91 73 55 SW6 30.08S HX 99 Wash National CLOUDY 83 73 72 S8 29.95F Wash Dulles CLOUDY 81 71 71 S7 29.95F Baltimore CLOUDY 82 71 69 S5 29.94F Philadelphia CLOUDY 78 68 71 SW8 29.97F Newark CLOUDY 79 67 66 W8 29.96F Laguardia CLOUDY 77 67 71 SW9 29.96F J F K PTSUNNY 77 68 73 S8 29.99F Boston LGT RAIN 72 60 66 SW16G25 29.94F Pittsburg CLOUDY 80 63 55 W7 29.96F Akron PTSUNNY 81 64 56 SW7 29.95F Cleveland CLOUDY 85 64 49 W5 29.95S Cincinnati CLOUDY 81 74 79 W7 29.96F Columbus CLOUDY 73 73 98 SW6 29.93F Detroit PTSUNNY 84 64 50 N7 29.92F Chicago O`Hare PTSUNNY 80 68 66 NE15 29.95S Minneapolis MOSUNNY 82 59 45 CALM 30.07F Indianapolis LGT RAIN 76 73 91 SW16 29.94S Toronto Canada CLOUDY 75 66 73 SW2 29.92S $$

USA.gov is the U.S. government's official web portal to all federal, state and local government web resources and services.